GEFSSGP_con_probscp_186.txt.gz
Probability
6 6 6 3 1 0 0 0 0 0 0 0 0 0 0 0 0 0 0 0 0 0 0 0 0 0 0 0 0 0 0 0 0 0 0 0 0 0 0 0 0 0 0 0 0 0 0 0 0
4 4 4 2 0 0 0 0 0 0 0 0 0 0 0 0 0 0 0 0 0 0 0 0 0 0 0 0 0 0 0 0 0 0 0 0 0 0 0 0 0 0 0 0 0 0 0 0 0
2 2 2 0 0 0 0 0 0 0 0 0 0 0 0 0 0 0 0 0 0 0 0 0 0 0 0 0 0 0 0 0 0 0 0 0 0 0 0 0 0 0 0 0 0 0 0 0 0
3 2 1 0 0 0 0 0 0 0 0 0 0 0 0 0 0 0 0 0 0 0 0 0 0 0 0 0 0 0 0 0 0 0 0 0 0 0 0 0 0 0 0 0 0 0 0 0 0
4 2 0 0 0 0 0 0 0 0 0 0 0 0 0 0 0 0 0 0 0 0 0 0 0 0 0 0 0 0 0 0 0 0 0 0 0 0 0 0 0 0 0 0 0 0 0 0 0
2 1 0 0 0 0 0 0 0 0 0 0 0 0 0 0 0 0 0 0 0 0 0 0 0 0 0 0 0 0 0 0 0 0 0 0 0 0 0 0 0 0 0 0 0 0 0 0 0
0 0 0 0 0 0 0 0 0 0 0 0 0 0 1 1 1 1 0 0 0 0 0 0 0 0 0 0 0 0 0 0 0 0 0 0 0 0 0 0 0 0 0 0 0 0 0 0 0
0 0 0 0 0 0 0 0 0 0 0 0 0 0 2 4 4 2 1 0 0 0 0 0 0 0 0 0 0 0 0 0 0 0 0 0 0 0 0 0 0 0 0 0 0 0 0 0 0
0 0 0 0 0 0 0 0 0 0 0 0 0 0 2 5 5 3 2 0 0 0 0 0 0 0 0 0 0 0 0 0 0 0 0 0 0 0 0 0 0 0 0 0 0 0 0 0 0
0 0 0 0 0 0 0 0 0 0 0 0 2 3 5 6 5 3 1 1 1 1 1 1 1 1 1 1 0 1 1 0 0 0 0 0 0 0 0 0 0 0 0 0 0 0 0 0 0
0 0 0 0 0 0 0 0 0 0 0 1 4 9 9 6 4 2 2 2 3 2 2 1 1 2 2 2 2 2 2 1 1 0 0 0 0 0 0 0 0 0 0 0 0 0 0 0 0
0 0 0 0 0 0 0 0 0 0 1 2 6 11 11 6 3 3 4 5 5 4 3 1 1 1 3 3 3 3 2 2 1 0 0 0 0 0 0 0 0 0 0 0 0 0 0 0 0
0 0 0 0 0 0 0 0 0 1 2 3 6 9 8 4 2 5 8 9 8 6 4 2 1 2 3 3 3 3 1 1 1 0 0 0 0 0 0 0 0 0 0 0 0 0 0 0 0
0 0 0 0 0 0 0 0 0 1 3 4 6 6 4 2 3 7 11 12 11 9 7 6 5 4 4 3 3 3 1 0 0 0 0 0 0 0 0 0 0 0 0 0 0 0 0 0 0
0 0 0 0 0 0 0 0 1 2 3 3 4 4 2 1 3 8 11 12 11 11 11 10 8 7 7 6 5 4 2 1 0 0 0 0 0 0 0 0 0 0 0 0 0 0 0 0 0
0 0 0 0 0 0 0 1 1 2 2 2 3 5 4 2 4 6 8 9 9 11 13 13 11 10 10 10 9 7 4 1 0 0 0 0 0 0 0 0 0 0 0 0 0 0 0 0 0
0 0 0 0 0 0 0 1 2 1 1 2 4 6 7 6 6 5 5 6 9 13 16 17 16 15 13 12 11 10 6 2 0 0 0 0 0 0 0 0 0 0 0 0 0 0 0 0 0
0 0 0 0 0 0 0 1 1 1 1 3 5 8 11 11 10 8 7 9 13 17 20 22 22 20 17 14 13 10 6 3 1 0 0 0 0 0 0 1 1 1 0 0 0 0 0 0 0
0 0 0 0 0 0 0 0 1 1 1 3 6 8 12 14 14 13 13 14 18 23 26 27 26 24 22 18 14 10 7 4 3 1 0 0 0 0 1 1 2 2 1 0 0 0 0 0 0
0 0 0 0 0 0 0 0 1 2 3 3 5 7 9 14 18 19 20 21 25 30 31 29 26 24 23 20 16 11 8 6 5 3 2 2 1 1 1 1 2 3 2 1 1 0 0 0 0
0 0 0 0 0 0 0 0 1 2 3 3 4 5 6 11 19 24 25 28 32 35 33 30 25 22 20 18 16 13 9 8 7 5 3 3 3 2 1 1 1 2 2 2 1 1 1 1 1
0 0 0 0 0 0 0 0 0 1 2 3 4 5 6 10 18 24 27 30 33 32 31 30 27 24 19 16 15 13 9 6 4 3 2 3 3 3 1 0 0 1 1 1 1 2 3 4 4
0 0 0 0 0 0 0 0 0 0 1 2 4 6 7 10 17 21 24 27 27 25 25 27 29 26 20 15 13 12 9 5 3 1 2 3 3 3 1 0 1 2 3 2 2 4 5 6 6
0 0 0 0 0 0 0 0 0 0 0 1 4 7 10 14 18 20 22 24 23 19 19 21 24 24 20 15 12 12 11 9 5 3 3 3 3 2 1 0 2 5 5 3 3 4 6 6 6
0 0 0 0 0 0 0 0 0 0 0 1 4 8 12 17 22 25 24 24 22 18 17 19 21 22 21 18 15 13 12 10 7 3 3 3 3 3 2 2 4 6 6 4 3 4 5 6 6
0 0 0 0 0 0 0 0 0 0 0 0 3 7 11 17 25 30 27 23 21 19 18 20 22 23 22 20 16 13 11 8 5 3 2 3 4 4 4 5 6 6 6 4 3 3 4 4 5
0 0 0 0 0 0 0 0 0 0 0 0 2 6 11 17 26 29 26 21 20 20 20 21 23 23 23 20 15 12 10 8 5 5 6 6 6 6 6 6 6 6 6 5 4 3 3 3 4
0 0 0 0 0 0 0 0 0 0 0 1 4 9 14 20 25 26 23 20 20 22 23 22 23 23 22 18 13 11 11 10 8 9 10 10 9 7 6 6 6 6 6 6 5 4 3 3 3
0 0 0 0 0 0 0 0 0 1 1 2 6 12 17 21 24 25 22 21 22 23 24 25 25 23 20 16 13 12 13 13 12 11 11 11 10 8 6 6 6 6 7 7 7 6 5 4 4
0 0 0 0 0 0 0 1 1 1 1 4 8 14 18 21 24 25 21 21 22 23 24 26 26 24 19 16 15 15 15 16 15 13 12 11 11 10 6 5 5 6 7 8 9 8 6 5 4

GEFSSGP_con_probscp_192.txt.gz
Probability
12 19 34 38 22 5 0 0 0 0 0 0 0 0 0 0 0 0 0 0 0 0 0 0 0 0 0 0 0 0 0 0 0 0 0 0 0 0 0 0 0 0 0 0 0 0 0 0 0
14 24 34 28 12 2 0 0 0 0 0 0 0 0 0 0 0 0 0 0 0 0 0 0 0 0 0 0 0 0 0 0 0 0 0 0 0 0 0 0 0 0 0 0 0 0 0 0 0
16 25 27 14 3 0 0 0 0 0 0 0 0 0 0 0 0 0 0 0 1 1 0 0 0 0 0 0 0 0 0 0 0 0 0 0 0 0 0 0 0 0 0 0 0 0 0 0 0
17 18 12 4 0 0 0 0 0 0 0 0 0 0 0 0 0 0 0 1 1 1 0 0 0 0 0 0 0 0 0 0 0 0 0 0 0 0 0 0 0 0 0 0 0 0 0 0 0
17 10 3 0 0 0 0 0 0 0 0 0 0 0 0 0 0 0 0 1 2 2 0 0 0 0 0 0 0 0 0 0 0 0 0 0 0 0 0 0 0 0 0 0 0 0 0 0 0
12 6 1 0 0 0 0 0 0 0 0 0 0 0 0 0 0 0 0 1 3 3 2 1 2 2 1 0 0 0 0 0 0 0 0 0 0 0 0 0 0 0 0 0 0 0 0 0 0
7 3 0 0 0 0 0 0 0 0 0 0 0 0 0 0 0 0 1 2 4 4 3 3 4 4 4 2 1 0 0 0 0 0 0 0 0 0 0 0 0 0 0 0 0 0 0 0 0
3 1 0 0 0 0 0 0 0 0 0 0 0 0 0 0 0 0 1 3 4 4 3 3 2 3 4 4 3 1 0 0 0 0 0 0 0 0 0 0 0 0 0 0 0 0 0 0 0
1 0 0 0 0 0 0 0 0 0 0 0 1 1 1 0 1 2 3 5 5 5 4 2 1 1 3 4 4 2 1 0 0 0 0 0 0 0 0 0 0 0 0 0 0 0 0 0 0
0 0 0 0 0 0 0 0 0 0 1 2 3 3 2 1 2 4 6 7 6 6 5 3 1 1 2 3 3 2 1 0 0 0 0 0 0 0 0 0 0 0 0 0 0 0 0 0 0
0 0 0 0 0 0 0 0 0 1 3 5 5 4 2 1 2 6 7 7 7 7 5 3 2 3 4 4 3 2 1 0 0 0 0 0 0 0 0 0 0 0 0 0 0 0 0 0 0
0 0 0 0 0 0 0 0 0 1 4 7 6 3 2 2 4 6 7 7 7 7 6 4 5 6 6 5 4 3 1 0 0 0 0 0 0 0 0 0 0 0 0 0 0 0 0 0 0
0 0 0 0 0 0 0 0 1 3 6 8 6 3 2 4 7 9 9 8 9 10 8 8 8 8 8 5 4 4 2 0 0 0 0 0 0 0 0 0 0 0 0 0 0 0 0 0 0
0 0 0 0 0 0 0 1 3 6 8 8 5 2 3 7 11 14 13 12 13 14 14 11 9 10 10 8 6 5 3 1 0 0 0 0 0 0 0 0 0 0 0 0 0 0 0 0 0
0 0 0 0 0 0 0 2 5 6 6 7 6 5 7 13 17 19 19 19 19 21 20 14 9 11 14 12 9 6 3 2 1 1 1 0 0 0 0 0 0 0 1 1 1 1 1 1 1
0 0 0 0 0 0 0 2 5 4 5 7 10 13 18 23 23 23 25 28 30 31 30 22 15 16 17 16 13 7 4 4 4 3 2 1 1 1 0 0 0 1 2 2 2 2 2 2 2
0 0 0 0 0 0 0 2 3 4 6 10 15 21 28 32 32 31 32 38 42 43 40 31 24 22 20 18 15 10 6 6 6 5 4 3 2 2 1 1 1 2 2 3 3 3 2 2 2
0 0 0 0 0 0 1 2 3 3 6 12 20 28 35 40 41 40 39 44 51 50 45 37 32 27 23 20 18 14 9 7 6 6 5 4 4 4 3 2 2 2 1 1 2 3 3 3 2
0 0 0 0 0 0 1 2 3 3 5 12 21 30 39 45 48 49 47 50 56 56 51 45 39 33 28 24 20 17 12 9 8 9 9 7 5 4 3 3 4 3 1 1 2 2 3 3 3
0 0 0 0 0 0 0 2 3 3 4 8 17 26 34 45 55 58 57 56 59 62 59 53 45 38 32 28 24 20 16 13 12 14 14 11 8 6 4 5 6 5 3 2 2 3 3 2 2
0 0 0 0 0 0 0 2 4 4 4 6 12 20 27 41 57 64 63 60 60 63 64 59 51 42 35 30 25 21 18 16 16 18 18 15 11 9 7 7 10 9 5 2 2 3 4 2 1
0 0 0 0 0 0 1 2 4 5 5 5 9 15 22 36 54 64 64 61 58 59 63 64 58 47 37 31 26 21 18 16 17 18 18 16 13 11 11 11 13 12 7 4 2 2 4 3 2
0 0 0 0 0 0 1 3 5 5 5 6 8 12 18 32 48 60 62 59 55 54 59 64 63 53 42 34 28 23 17 14 16 17 17 15 13 13 14 13 13 13 11 8 5 3 3 3 3
0 0 0 0 0 0 0 2 3 4 5 7 9 10 16 29 44 53 57 57 54 52 54 58 62 57 48 39 33 26 19 14 15 16 17 15 14 15 15 13 12 12 13 12 10 7 5 4 4
0 0 0 0 0 0 0 1 1 2 5 7 8 9 17 31 41 48 53 56 54 51 51 54 59 58 51 43 37 32 26 19 18 19 18 16 15 15 15 14 12 11 12 12 12 11 8 5 4
0 0 0 0 0 0 1 2 1 2 5 6 7 10 20 31 39 44 49 53 52 48 47 53 58 58 52 47 41 36 31 25 22 24 22 19 15 13 15 15 13 11 11 12 12 11 9 6 4
0 0 0 0 0 0 2 3 3 3 5 5 7 12 20 29 36 39 42 45 47 46 47 52 59 59 53 48 43 36 32 28 26 28 27 23 16 13 15 15 14 12 12 12 11 10 9 7 6
0 0 0 0 0 0 1 3 3 3 3 5 9 14 20 25 31 34 36 38 42 47 49 52 58 59 52 46 41 36 34 31 30 31 30 27 20 16 16 16 15 13 13 13 14 13 11 9 8
0 0 0 0 0 0 1 2 2 2 2 5 11 19 24 26 28 32 35 37 41 46 49 54 59 59 53 47 44 41 38 36 34 32 31 28 23 20 19 18 16 13 13 15 17 15 13 10 9
0 0 0 0 0 0 1 2 1 1 1 4 13 22 27 28 29 32 36 38 40 44 49 54 59 59 54 49 48 45 41 38 35 32 30 27 24 21 19 19 17 14 13 16 17 15 12 11 10

GEFSSGP_con_probscp_198.txt.gz
Probability
7 5 3 2 1 0 0 0 0 0 0 0 1 2 2 2 2 3 3 3 3 3 3 3 3 3 3 3 3 3 3 3 3 3 3 3 3 3 3 3 3 3 3 3 3 3 3 3 3
5 5 3 1 0 0 0 0 0 0 0 0 0 2 3 3 3 3 3 3 3 3 3 3 3 3 3 3 3 3 3 3 3 3 3 3 3 3 3 3 3 3 3 3 3 3 3 3 3
4 5 4 1 0 0 0 0 0 0 0 0 1 2 3 3 3 3 3 4 3 3 3 3 3 3 3 3 3 3 3 3 3 3 3 3 3 3 3 3 3 3 3 3 3 3 3 3 3
3 3 2 0 0 0 0 0 0 0 0 1 2 3 3 4 5 5 5 5 4 3 3 3 4 3 3 3 3 3 3 3 3 3 3 3 3 3 3 3 3 3 3 3 3 3 3 3 3
1 1 0 0 0 0 1 2 1 0 1 2 3 3 3 6 9 9 7 6 4 3 3 4 5 4 4 3 3 3 3 3 3 3 3 3 3 3 3 3 3 3 3 3 3 3 3 3 3
1 0 0 0 0 0 1 3 2 1 2 3 3 3 4 8 12 11 8 7 5 4 4 5 6 6 5 4 3 3 3 3 3 3 3 3 3 3 3 3 3 3 3 3 3 3 3 3 3
2 1 0 0 0 0 1 2 2 1 1 2 3 3 4 8 11 12 9 7 6 5 6 6 6 6 6 5 4 3 3 3 3 3 3 3 3 3 3 3 3 3 3 3 3 3 3 3 3
2 1 0 0 0 0 0 1 1 1 0 1 2 3 5 9 13 13 11 8 6 5 5 6 6 6 6 5 5 4 3 3 3 3 3 3 3 3 3 3 3 3 3 3 3 3 3 3 3
1 0 0 0 0 0 0 0 0 0 0 0 1 2 7 13 17 17 14 11 7 5 5 6 6 5 5 5 4 3 3 3 3 3 3 3 3 3 3 3 3 3 3 3 3 3 3 3 3
0 0 0 0 0 0 0 0 0 1 2 1 1 3 9 16 19 19 16 12 9 6 6 7 7 6 6 5 4 3 3 3 3 2 2 2 2 2 3 3 3 3 3 3 3 3 3 3 2
0 0 0 0 0 0 0 0 1 2 2 1 2 5 10 14 18 18 15 11 9 9 10 9 8 8 7 6 4 2 3 3 3 2 2 2 1 1 3 3 3 3 3 3 3 3 3 1 1
0 0 0 0 0 0 0 0 1 3 3 2 4 8 11 13 15 17 15 11 11 13 14 12 10 10 9 8 5 3 3 3 3 3 3 2 2 2 3 3 3 3 3 3 3 3 2 1 0
0 0 0 0 2 3 2 1 1 3 4 4 6 10 13 15 17 18 17 14 14 16 16 14 13 13 12 10 7 4 3 3 3 3 3 3 3 3 3 3 2 2 3 3 3 3 2 1 0
0 0 0 1 3 4 3 2 3 5 7 8 10 13 18 22 23 22 20 18 17 17 17 16 15 14 14 12 8 5 3 3 3 3 3 3 3 3 3 3 2 2 3 3 3 3 1 0 0
0 0 0 0 1 2 2 3 4 7 9 10 12 17 22 26 27 26 23 21 19 18 18 17 15 14 14 13 8 5 4 3 3 3 3 3 3 3 3 3 2 2 3 2 2 2 1 0 0
0 0 0 0 0 1 2 4 5 6 8 9 12 19 23 25 28 28 27 27 25 21 18 16 15 14 13 11 8 5 4 4 3 3 3 3 3 3 3 2 2 2 1 1 1 1 0 0 0
0 0 0 0 1 2 3 4 5 5 6 7 13 21 23 24 28 31 33 34 31 25 18 14 14 14 12 11 8 5 4 5 4 3 3 3 3 3 2 1 1 1 0 0 0 0 0 0 0
0 0 0 0 1 3 4 6 6 5 5 8 14 20 22 25 31 35 38 39 36 28 20 15 14 14 13 12 9 7 6 6 5 4 3 3 3 3 2 0 0 0 0 0 0 0 0 0 0
0 0 0 0 1 4 6 8 7 6 7 9 13 18 20 25 33 39 42 43 39 32 25 20 18 16 15 14 11 9 8 8 7 6 4 3 3 3 2 1 0 0 0 0 0 0 0 1 1
0 0 0 1 3 5 7 7 6 6 8 10 12 17 20 24 33 41 45 46 43 39 33 28 25 21 19 17 14 11 10 10 9 8 5 3 3 3 3 3 1 1 1 0 0 0 0 1 2
0 0 0 2 3 4 5 5 5 5 7 10 14 17 20 24 31 40 45 47 47 43 38 34 29 25 23 20 16 13 11 11 10 9 6 4 3 4 4 5 3 2 1 1 1 0 1 1 2
0 0 0 1 1 1 2 3 3 3 4 10 15 19 23 25 29 36 43 47 47 43 39 34 29 26 23 21 18 14 12 11 10 8 6 4 4 5 5 5 4 3 2 3 3 2 2 2 2
0 0 0 0 0 0 1 1 1 1 2 8 15 22 26 27 29 34 40 44 44 41 38 33 29 25 22 19 17 14 12 9 9 8 7 5 5 5 5 5 5 5 5 6 6 5 5 5 4
0 0 0 0 0 0 0 0 0 0 1 7 15 21 25 28 31 34 36 39 41 40 38 35 32 27 23 19 16 14 12 9 9 9 8 6 5 5 6 6 7 8 8 8 7 7 7 6 5
0 0 0 0 0 0 0 0 0 0 1 6 13 19 24 29 32 33 34 36 38 41 41 39 35 30 25 22 18 16 14 12 11 11 9 7 5 5 7 7 8 9 9 8 8 8 7 5 4
0 0 0 0 0 0 0 0 0 0 1 5 11 17 23 28 30 29 31 33 36 41 42 39 36 32 28 27 23 19 17 15 13 11 9 8 6 7 8 8 8 9 9 8 8 8 7 5 2
0 0 0 0 0 0 0 0 0 1 3 6 11 16 20 25 27 26 25 27 33 38 39 37 35 32 31 30 27 23 20 18 15 13 11 9 8 8 9 9 9 9 8 7 7 7 6 4 2
0 0 0 0 0 0 0 0 1 3 5 7 11 17 22 24 25 24 22 22 27 32 33 34 35 34 32 31 28 24 22 20 19 17 15 13 11 10 10 10 10 9 6 5 5 6 6 5 3
0 0 0 0 0 0 0 0 1 3 5 8 12 19 24 25 25 22 20 22 26 29 29 30 33 35 35 33 29 27 25 23 21 19 18 15 13 12 13 12 10 7 6 5 6 6 6 5 4
0 0 0 0 0 0 1 1 1 2 5 9 14 19 24 26 23 20 20 25 28 28 28 29 32 36 37 35 32 30 28 26 23 20 19 16 14 13 13 11 9 7 6 7 8 8 7 5 5

GEFSSGP_con_probscp_204.txt.gz
Probability
4 1 0 0 0 0 0 0 0 0 0 0 0 0 0 0 0 0 0 0 0 0 0 0 0 0 0 0 0 0 0 0 0 0 0 0 0 0 0 0 0 0 0 0 0 0 0 0 0
2 1 0 0 0 0 0 0 0 0 0 0 0 0 0 0 0 0 0 0 0 0 0 0 0 0 0 0 0 0 0 0 0 0 0 0 0 0 0 0 0 0 0 0 0 0 0 0 0
1 0 0 0 0 0 0 0 0 0 0 0 0 0 0 0 0 0 0 0 0 0 0 0 0 0 0 0 0 0 0 0 0 0 0 0 0 0 0 0 0 0 0 0 0 0 0 0 0
0 0 0 0 0 0 0 0 0 0 0 0 0 0 0 0 0 0 0 0 0 0 0 0 0 0 0 0 0 0 0 0 0 0 0 0 0 0 0 0 0 0 0 0 0 0 0 0 0
0 0 0 0 0 0 0 0 0 0 0 0 0 0 0 0 0 0 1 1 0 0 0 0 0 0 0 0 0 0 0 0 0 0 0 0 0 0 0 0 0 0 0 0 0 0 0 0 0
0 0 0 0 0 0 0 0 0 0 0 0 0 0 0 0 0 1 2 1 0 0 0 0 0 1 0 0 0 0 0 0 0 0 0 0 0 0 0 0 0 0 0 0 0 0 0 0 0
0 0 0 0 0 0 0 0 0 0 0 0 0 0 0 0 0 1 1 1 0 0 0 0 0 0 0 0 0 0 0 0 0 0 0 0 0 0 0 0 0 0 0 0 0 0 0 0 0
0 0 0 0 0 0 0 0 0 0 0 0 0 0 0 1 1 1 1 0 0 0 0 0 0 0 0 0 0 0 0 0 0 0 0 0 0 0 0 0 0 0 0 0 0 0 0 0 0
0 0 0 0 0 1 1 0 0 0 0 0 0 1 3 5 5 4 3 1 0 0 0 1 1 1 0 0 0 0 0 0 0 0 0 0 0 0 0 0 0 0 0 0 0 0 0 0 0
0 0 0 0 1 2 1 0 0 0 0 0 1 4 9 11 10 8 6 2 1 1 1 2 2 2 1 0 0 0 0 0 0 0 0 0 0 0 0 0 0 0 0 0 0 0 0 0 0
0 0 0 1 2 2 1 0 0 0 0 0 3 9 13 14 12 10 8 5 3 2 3 3 3 2 1 0 0 0 0 0 0 0 0 0 0 0 0 0 0 0 0 0 0 0 0 0 0
0 0 1 2 3 3 1 0 0 0 1 2 6 12 14 13 12 10 8 7 5 4 4 4 3 1 0 0 0 0 0 0 0 0 0 0 0 0 0 0 0 0 0 0 0 0 0 0 0
0 1 2 4 4 3 2 1 1 1 2 3 7 10 11 11 11 10 9 7 6 6 5 3 2 0 0 0 0 0 0 0 0 0 0 0 0 0 0 0 0 0 0 0 0 0 0 0 0
1 1 2 3 2 1 1 2 2 1 3 4 6 8 8 9 10 10 8 6 6 7 6 3 1 1 1 0 0 0 0 0 0 0 0 0 0 0 0 0 0 0 0 0 0 0 0 0 0
0 1 1 1 0 0 1 2 2 2 3 5 6 6 6 6 9 10 8 5 5 6 5 3 2 2 2 1 0 0 0 0 0 0 0 0 0 0 0 0 0 0 0 0 0 0 0 0 0
0 0 0 0 0 0 1 3 2 2 3 4 5 5 5 6 8 10 9 6 5 6 5 4 3 3 3 2 1 0 0 0 0 0 0 0 0 0 0 0 0 0 0 0 0 0 0 0 0
0 0 0 0 0 1 2 3 3 2 3 4 5 5 6 9 10 12 12 10 7 7 6 4 4 4 3 2 1 0 0 0 0 0 0 0 0 0 0 0 0 0 0 0 0 0 0 0 0
0 0 0 0 0 1 2 3 3 3 4 5 6 7 8 11 12 14 15 12 9 7 5 4 4 4 4 3 2 1 1 1 0 0 0 0 0 0 0 0 0 0 0 0 0 0 0 0 0
0 0 0 0 0 1 2 2 2 2 3 6 7 8 9 11 12 14 13 11 7 5 4 4 5 6 5 5 4 3 3 2 0 0 0 0 0 0 0 0 0 0 0 0 0 0 0 0 0
0 0 0 0 0 0 1 1 1 1 3 5 7 8 10 11 12 12 12 9 6 4 5 6 7 7 6 6 5 5 3 1 0 0 0 0 0 0 0 0 0 0 0 0 0 0 0 0 0
0 0 0 0 0 0 0 0 0 0 2 5 7 8 10 11 10 11 11 10 7 6 8 9 7 6 5 6 6 5 3 2 0 0 0 0 0 1 1 0 0 0 0 1 1 1 1 0 0
0 0 0 0 0 0 0 0 0 0 1 4 6 7 9 9 9 10 13 12 10 10 10 10 7 4 3 5 5 4 4 3 1 0 0 0 0 1 1 0 0 0 1 3 3 2 1 1 1
0 0 0 0 0 0 0 0 0 0 1 3 4 5 7 8 8 10 14 13 11 11 12 10 7 3 2 3 4 3 3 3 2 1 0 0 0 1 1 0 1 1 2 5 5 4 3 3 3
0 0 0 0 0 0 0 0 0 0 0 1 3 4 6 8 7 9 11 11 9 10 11 10 7 4 3 3 4 4 4 4 3 2 1 0 0 0 0 1 2 4 5 6 6 6 5 4 4
0 0 0 0 0 0 0 0 0 0 0 0 1 3 5 6 5 6 8 7 6 8 9 10 8 5 3 4 4 5 5 5 4 4 2 1 0 1 1 2 4 5 6 6 6 6 5 4 4
0 0 0 0 0 0 0 0 0 0 0 0 0 1 4 5 5 4 4 4 5 8 10 11 10 7 4 3 4 5 5 5 6 5 4 2 2 2 2 3 4 5 6 7 7 6 5 4 4
0 0 0 0 0 0 0 0 0 0 0 0 0 1 3 5 5 4 2 2 4 7 10 12 12 9 6 5 5 5 6 7 7 7 6 4 4 4 5 5 6 6 7 7 7 6 5 5 5
0 0 0 0 0 0 0 0 0 0 0 0 1 2 4 5 5 4 3 3 4 6 9 11 11 10 8 8 7 6 7 8 10 10 9 7 7 7 8 8 8 8 8 8 7 6 5 5 6
0 0 0 0 0 0 0 0 0 0 0 1 2 3 3 4 4 4 4 4 5 8 10 11 10 10 11 11 10 10 10 12 13 13 13 12 11 11 11 10 10 9 9 7 7 6 5 6 7
0 0 0 0 0 0 0 0 0 0 1 2 3 3 2 2 3 4 5 6 7 10 12 12 11 11 12 13 13 14 15 16 16 15 16 16 15 13 12 11 10 10 9 7 6 6 6 8 9

GEFSSGP_con_probscp_210.txt.gz
Probability
10 9 6 2 0 0 0 0 0 0 0 0 0 0 0 0 0 0 0 0 0 0 0 0 0 0 0 0 0 0 0 0 0 1 1 1 1 1 0 0 0 1 2 2 1 0 0 0 0
6 6 5 3 0 0 0 0 0 0 0 0 0 0 0 0 0 0 0 0 0 0 0 0 0 0 0 0 0 0 0 0 0 0 1 1 2 1 0 0 0 1 1 1 0 0 0 0 0
4 4 4 2 0 0 0 0 0 0 0 0 0 0 0 0 0 0 0 0 0 0 0 0 0 0 0 0 0 0 0 0 0 0 0 1 1 1 0 0 0 0 0 0 0 0 0 0 0
3 4 3 1 0 0 0 0 0 0 0 0 0 0 0 0 0 0 0 0 0 0 0 0 0 0 0 0 0 0 0 0 0 0 0 0 0 0 0 0 0 0 0 0 0 0 0 0 0
1 2 1 0 0 0 0 0 0 0 0 0 0 0 0 0 0 0 0 0 0 0 0 0 0 0 0 0 0 0 0 0 0 0 0 0 0 1 1 0 0 0 0 0 0 0 0 0 0
0 0 0 0 0 0 0 0 0 0 0 0 0 0 1 1 1 1 0 0 0 0 0 0 0 0 0 0 0 0 0 0 0 0 0 0 0 1 1 0 0 0 0 0 0 0 0 0 0
0 0 0 0 0 0 0 0 0 0 0 0 0 0 1 2 3 2 1 0 0 1 0 0 0 0 0 0 0 0 0 0 0 0 0 0 0 1 1 0 0 0 0 0 0 0 0 0 0
0 0 0 0 0 0 0 0 0 0 0 0 0 0 1 2 3 3 2 1 0 0 0 0 0 0 0 0 0 0 0 0 0 0 0 0 0 0 0 0 0 0 0 0 0 0 0 0 0
0 0 0 0 0 0 0 0 0 0 0 0 0 0 1 3 4 3 2 1 1 1 1 0 0 0 0 0 0 0 0 0 0 0 0 0 0 0 0 0 0 0 0 0 0 0 0 0 0
0 0 0 0 0 0 0 0 0 0 0 0 0 1 2 4 5 4 3 2 3 3 2 1 1 1 1 0 0 0 0 0 0 0 0 0 0 0 0 0 0 0 0 0 0 0 0 0 0
0 0 1 0 0 0 0 0 0 0 0 0 0 1 3 4 5 6 6 6 6 6 4 1 1 2 2 1 0 0 0 0 0 0 0 0 0 0 0 0 0 0 0 0 0 0 0 0 0
0 0 0 0 0 0 0 0 0 0 0 0 1 2 3 3 4 5 7 8 9 8 6 3 2 3 2 1 0 0 0 0 0 0 0 0 0 0 0 0 0 0 0 0 0 0 0 0 0
0 0 0 0 0 1 0 0 1 1 0 1 2 4 4 4 4 5 7 8 9 9 8 5 4 3 3 2 1 1 1 0 0 0 0 0 0 0 0 0 0 0 0 0 0 0 0 0 0
0 0 0 0 0 0 0 1 2 2 2 3 4 5 5 5 6 7 7 7 8 8 8 6 5 4 4 4 2 1 1 1 1 0 0 0 0 0 0 0 0 0 0 0 0 0 0 0 0
0 0 0 0 0 0 0 1 2 3 3 5 6 6 6 7 8 8 8 7 7 7 5 5 5 6 6 5 3 1 1 2 2 1 0 0 0 0 0 0 0 0 0 0 0 0 0 0 0
0 0 0 0 0 0 0 1 2 3 4 6 6 6 7 9 11 10 9 8 7 6 4 4 5 6 6 5 3 2 1 2 2 1 0 0 0 0 0 0 0 0 0 0 0 0 0 0 0
0 0 0 0 0 0 0 1 2 3 4 6 6 6 7 10 11 10 9 7 5 4 4 4 6 7 7 6 5 2 1 2 2 1 0 0 0 0 0 0 0 0 0 0 0 1 1 1 1
0 0 0 0 0 0 0 1 2 4 5 6 6 6 7 9 9 9 8 6 3 3 4 5 7 10 10 9 8 4 2 2 2 1 0 0 0 0 0 0 0 0 0 0 0 1 2 2 2
0 0 0 0 0 0 0 0 2 4 6 6 6 7 8 9 9 7 7 6 5 4 6 9 10 11 12 11 9 7 3 2 1 0 0 0 0 0 0 0 2 2 1 1 1 2 3 3 3
0 0 0 0 0 0 0 0 2 5 6 5 6 7 8 10 11 9 8 7 7 7 9 12 14 13 12 11 10 8 5 4 3 1 1 1 1 1 2 3 4 5 4 3 3 3 3 3 3
0 0 0 0 0 0 0 1 3 6 7 6 5 5 6 9 11 11 9 8 7 7 10 14 17 16 13 11 10 9 7 7 7 5 4 4 4 4 5 6 7 6 5 4 4 3 3 3 3
0 0 0 0 0 0 0 1 3 6 7 6 5 4 5 7 10 11 10 7 6 6 8 13 18 17 13 11 10 9 8 9 10 8 7 7 6 5 5 7 7 6 6 6 5 4 4 4 4
0 0 0 0 0 0 0 0 2 4 6 6 6 6 6 6 7 9 9 7 5 5 8 12 15 16 13 11 10 9 8 8 8 9 9 7 5 4 5 7 8 8 7 6 6 6 6 6 5
0 0 0 0 0 0 0 0 1 2 4 5 6 9 9 7 6 7 8 8 6 6 8 10 13 15 14 11 10 9 8 8 8 9 8 6 4 4 5 7 9 9 8 7 7 7 8 8 7
0 0 0 0 0 0 0 0 1 2 2 2 6 11 13 11 8 7 8 8 7 8 8 9 12 16 16 12 10 9 9 8 9 8 7 5 4 5 5 6 8 10 10 9 8 9 10 9 8
0 0 0 0 0 0 0 1 2 2 2 3 7 12 14 12 10 9 8 7 7 8 8 9 13 17 18 16 14 13 11 9 8 7 6 4 4 5 6 6 7 10 11 12 11 11 11 11 10
0 0 0 0 0 0 0 1 2 4 6 7 9 12 13 11 11 12 10 8 7 7 8 11 15 18 19 19 18 18 16 11 8 7 6 6 6 7 7 8 9 11 12 13 12 11 11 11 11
0 0 0 0 0 0 0 0 2 6 9 10 10 11 12 12 14 16 14 11 9 10 11 14 17 17 18 19 20 22 20 15 12 10 10 11 11 12 11 11 12 12 12 12 11 10 10 11 12
0 0 0 0 0 0 0 0 2 5 9 10 11 12 12 13 16 19 18 15 13 14 17 19 18 16 16 17 20 21 21 19 16 15 15 15 15 15 15 14 13 12 12 12 11 11 11 12 13
0 0 0 0 0 0 0 0 1 4 7 11 13 12 11 12 15 19 21 18 15 17 21 22 19 15 14 15 18 20 20 20 19 19 18 17 17 17 17 16 14 12 12 12 12 12 13 13 13

GEFSSGP_con_probscp_216.txt.gz
Probability
11 17 26 27 14 3 0 0 0 0 0 0 0 0 0 0 0 0 0 0 0 0 0 0 0 0 0 0 0 0 0 0 0 0 0 0 0 0 1 2 3 3 1 0 0 0 0 0 0
13 21 30 23 8 1 0 0 0 0 0 0 0 0 0 0 0 0 0 0 0 0 0 0 0 0 0 0 0 0 0 0 0 0 0 0 1 1 1 2 3 3 2 0 0 0 0 0 0
20 27 26 13 2 0 0 0 0 0 0 0 0 0 0 0 0 0 0 0 0 0 0 0 0 0 0 0 0 0 0 0 0 0 0 1 1 1 2 3 3 3 1 0 0 0 0 0 0
33 29 16 4 0 0 0 0 0 0 0 0 0 0 0 0 0 0 0 0 0 0 0 0 0 0 0 0 0 0 0 0 0 0 1 1 2 2 2 3 3 2 1 0 0 0 0 0 0
34 23 8 1 0 0 0 0 0 0 0 1 1 0 0 1 1 0 0 0 0 0 0 0 0 0 0 0 0 0 0 0 0 0 1 2 2 2 2 2 2 1 0 0 0 0 0 0 0
23 12 2 0 0 0 0 0 0 0 0 1 2 1 1 2 2 1 0 0 1 1 0 0 0 0 0 0 0 0 0 0 0 0 1 2 2 2 1 1 1 0 0 0 0 0 0 0 0
11 5 0 0 1 0 0 0 0 0 0 1 2 2 3 4 3 1 0 1 1 1 0 0 0 0 0 0 0 0 0 0 0 0 0 1 1 1 0 0 0 0 0 0 0 0 0 0 0
4 2 0 0 0 0 0 0 0 0 1 1 2 3 3 4 3 1 1 2 1 1 0 0 0 1 0 0 0 0 0 0 0 0 0 0 0 0 0 0 0 0 0 0 0 0 0 0 0
1 0 0 0 0 0 0 0 0 0 1 2 3 3 3 3 3 2 2 2 1 0 0 0 0 0 0 0 0 0 0 0 0 0 0 0 0 0 0 0 0 0 0 0 0 0 0 0 0
0 0 0 0 0 0 0 0 0 0 1 3 3 3 3 3 3 3 3 3 1 0 0 0 1 1 1 0 0 0 1 1 1 0 0 0 0 0 0 0 1 1 2 1 1 1 1 0 1
0 0 0 0 0 0 0 0 0 0 1 2 3 3 3 3 4 5 5 5 3 1 1 1 2 3 2 1 0 0 1 2 2 1 0 0 0 0 0 0 1 2 2 2 2 2 1 1 1
0 0 0 0 0 0 0 0 0 0 1 3 3 3 4 4 5 6 7 7 6 4 2 2 3 4 4 3 2 1 2 3 3 2 1 0 0 0 0 0 1 1 1 1 1 1 1 0 1
0 0 0 0 0 0 0 0 0 1 2 3 4 5 6 7 9 9 8 7 6 5 3 2 3 5 6 5 5 3 2 3 3 2 1 0 0 0 0 0 0 0 0 0 0 0 1 1 1
0 0 0 0 0 0 0 0 1 2 3 5 6 7 9 11 12 12 10 8 6 5 4 3 5 8 9 8 8 6 3 3 3 1 0 0 0 0 1 1 1 0 0 0 1 1 2 2 2
0 0 0 0 0 0 0 0 1 2 4 6 8 11 13 15 15 13 11 8 6 6 6 6 7 10 11 10 8 7 5 4 3 2 1 1 1 2 3 3 2 2 1 1 2 3 3 3 3
0 0 0 0 0 0 1 1 1 2 4 7 9 13 18 20 19 15 11 9 8 9 10 8 8 11 12 10 8 7 7 6 5 5 5 3 3 4 6 5 3 3 3 3 3 3 3 3 3
0 0 0 0 0 0 0 2 3 3 4 7 9 13 21 25 24 18 12 11 12 15 15 12 10 12 13 12 10 8 8 8 8 9 8 6 5 6 7 6 4 3 3 3 3 3 3 4 4
0 0 0 0 0 0 0 3 6 5 4 7 9 13 21 27 27 22 16 14 17 19 21 18 15 15 15 14 13 11 10 11 13 12 10 8 7 7 8 7 6 4 3 3 3 3 4 4 4
0 0 0 0 0 0 0 3 6 6 4 6 10 14 21 27 29 27 22 20 21 24 26 25 22 20 19 17 16 15 14 14 17 18 14 11 9 10 9 8 7 5 4 4 5 5 5 4 4
0 0 0 0 0 0 0 2 4 5 4 5 8 14 21 29 32 31 27 24 26 31 31 29 28 27 23 19 17 16 15 16 19 20 19 16 14 13 11 10 9 8 8 7 8 7 7 6 5
0 0 0 0 0 0 0 1 3 4 4 5 7 12 19 28 34 32 27 24 28 34 34 31 32 31 26 21 17 15 17 17 18 20 20 20 19 17 14 13 12 11 11 11 10 10 10 8 7
0 0 0 0 0 0 0 2 4 5 4 5 7 10 16 25 32 32 27 23 25 29 31 32 34 31 26 20 17 17 18 19 20 20 21 23 23 20 18 17 15 14 14 14 13 12 13 12 10
0 0 0 0 0 0 0 1 3 4 4 6 7 10 16 23 30 33 31 25 21 22 25 31 35 32 25 20 17 18 19 21 22 22 23 25 25 22 21 20 17 16 16 15 14 14 16 16 15
0 0 0 0 0 0 0 1 2 2 3 4 5 9 15 22 30 34 33 29 23 21 24 32 37 34 27 23 21 21 21 21 22 22 22 23 23 23 23 23 21 17 16 15 14 14 16 18 19
0 0 0 0 0 0 0 1 2 1 1 2 3 8 16 24 31 33 32 31 28 26 28 34 38 35 30 28 28 27 24 23 24 24 21 18 19 22 25 27 24 19 14 14 14 14 15 17 19
0 0 0 0 0 0 1 2 2 1 1 2 3 8 17 26 31 33 33 33 32 31 32 36 39 37 33 32 34 33 29 25 23 23 21 19 19 22 25 27 25 21 15 14 15 15 15 17 18
0 0 0 0 0 0 2 3 3 2 2 3 5 10 18 25 30 32 33 34 33 32 34 36 40 40 36 35 38 38 33 25 20 22 24 24 24 25 24 24 25 22 17 16 16 15 15 16 16
0 0 0 0 0 0 1 3 5 4 3 3 6 12 18 24 28 30 31 32 31 32 33 36 40 42 39 38 39 39 36 28 23 24 27 29 30 29 26 24 24 22 20 19 17 16 15 14 14
0 0 0 0 0 0 1 2 5 7 5 4 8 14 20 25 29 31 30 28 28 30 33 35 39 40 39 38 39 40 39 35 31 29 31 33 34 33 29 25 24 23 21 19 17 16 15 13 12
0 0 0 0 0 0 1 2 4 7 7 6 9 14 21 27 32 33 31 26 26 29 33 36 38 38 38 38 40 42 42 39 36 35 35 35 35 35 31 26 23 22 20 18 17 16 15 13 12

GEFSSGP_con_probscp_222.txt.gz
Probability
19 12 5 3 2 1 0 0 0 0 0 0 0 0 0 0 0 0 1 2 3 3 3 3 3 3 3 3 3 3 3 3 2 1 0 0 1 2 3 3 3 3 3 2 2 2 3 5 5
15 11 6 3 1 0 0 0 0 0 0 0 0 0 0 0 0 1 2 3 3 3 3 3 3 3 3 3 3 3 3 3 2 1 0 0 1 2 3 3 3 3 2 1 1 1 2 3 4
13 10 6 3 1 0 0 0 0 0 0 0 0 0 0 0 0 1 2 3 3 3 3 3 3 3 3 3 3 3 3 3 2 1 0 0 1 3 3 3 3 3 1 0 0 0 1 2 3
12 9 5 2 0 0 0 0 0 0 0 0 0 0 0 0 0 2 3 3 3 3 3 3 3 3 3 3 3 3 3 3 3 1 0 1 2 3 3 3 3 2 1 0 0 0 1 2 3
8 6 2 0 0 0 0 0 1 0 0 1 1 0 0 1 2 5 5 3 3 3 3 3 4 3 3 3 3 3 3 4 3 1 0 1 3 3 3 3 2 1 0 0 0 1 2 3 4
4 3 1 0 0 0 0 2 3 2 1 1 1 0 1 2 5 7 6 3 2 3 4 4 4 4 3 3 3 3 3 4 3 1 1 2 3 3 2 1 1 0 0 0 0 1 2 4 5
3 2 0 0 0 0 1 3 5 4 2 2 1 0 1 3 5 7 7 4 2 4 5 5 4 4 3 3 3 3 2 2 2 2 2 3 3 2 1 0 1 1 1 1 1 1 3 4 5
3 1 0 0 1 1 2 4 6 6 4 2 0 0 1 3 4 5 5 4 4 5 6 6 5 4 3 3 3 2 1 1 2 2 3 3 2 1 0 1 2 2 2 2 2 2 3 4 4
2 1 0 1 1 2 4 6 7 7 5 3 2 1 3 4 4 3 2 3 4 6 6 6 5 4 3 3 3 1 0 0 1 1 2 2 1 0 1 2 3 3 3 3 2 2 2 2 2
1 0 1 2 3 3 4 7 7 7 6 5 3 3 5 6 4 3 2 2 3 5 5 5 4 4 3 3 2 1 0 0 0 0 1 1 0 0 1 2 3 3 3 2 1 0 1 1 0
0 0 1 2 3 3 4 5 6 6 7 6 6 5 7 7 6 5 4 3 3 4 5 5 5 4 3 2 2 1 0 0 0 0 0 0 0 0 0 1 1 2 2 1 0 0 0 0 0
0 1 2 2 2 3 3 4 6 6 7 8 9 9 9 10 8 6 5 4 3 4 5 5 6 5 4 3 2 1 0 0 0 0 0 0 0 0 0 0 0 1 1 0 0 0 0 0 0
1 1 2 2 1 1 3 5 6 6 8 10 12 13 13 12 9 6 5 4 3 4 6 6 6 6 5 3 3 2 1 0 0 0 0 1 1 1 0 0 0 0 0 0 0 0 0 0 1
0 1 1 1 0 0 2 4 6 6 8 11 14 16 17 13 9 7 5 4 4 5 7 8 7 5 4 4 3 2 1 0 0 1 1 2 2 1 0 0 0 0 0 0 0 0 1 1 2
0 0 0 0 0 0 0 2 5 6 8 10 14 19 19 14 9 8 6 4 3 4 6 9 7 5 5 5 4 2 1 0 0 1 2 2 1 1 1 0 0 0 0 0 0 0 1 2 3
0 0 0 0 0 0 0 1 4 6 7 10 14 19 19 14 10 7 6 4 2 3 6 9 8 6 6 5 3 1 0 0 0 1 3 3 2 2 2 1 0 0 0 0 0 0 1 1 2
0 0 0 0 0 1 1 2 3 5 7 11 15 18 17 13 9 6 5 5 5 5 8 9 8 6 5 3 2 0 0 0 0 2 3 3 3 2 2 1 0 0 0 0 0 0 0 1 2
0 0 0 0 1 2 2 3 3 5 7 11 15 16 14 12 8 6 5 8 9 10 9 8 8 6 3 1 1 1 1 0 1 3 3 3 2 2 1 0 0 0 0 0 0 0 0 0 1
0 0 0 1 1 2 2 3 4 5 8 12 15 14 13 11 8 6 7 11 14 12 9 8 8 5 2 0 1 2 2 1 0 2 4 4 3 2 2 1 1 0 0 0 1 1 1 1 1
0 0 0 1 1 1 1 2 4 5 9 12 13 13 12 10 9 9 11 15 16 14 11 8 7 5 2 0 1 2 2 1 1 1 2 4 4 4 4 3 2 1 1 1 1 1 2 2 2
0 0 0 1 1 1 1 2 3 5 8 11 12 12 11 11 10 11 14 17 18 17 13 10 7 5 4 3 2 2 2 2 2 1 2 4 5 6 6 5 4 3 3 3 3 3 3 3 3
0 0 0 0 0 0 0 1 2 4 6 9 10 10 11 12 10 10 15 19 20 17 14 11 8 7 8 7 5 3 3 3 3 3 4 5 7 7 7 6 6 6 6 6 6 4 3 3 3
0 0 0 0 0 0 0 0 1 2 4 6 8 12 13 12 10 9 14 18 19 19 16 14 11 9 9 8 6 5 4 4 3 4 5 7 8 8 7 6 6 7 8 8 6 4 3 4 4
0 0 0 0 0 0 0 0 0 1 3 6 11 15 16 13 11 9 11 14 17 21 22 18 14 11 9 8 6 6 5 4 4 5 6 7 7 8 6 5 5 6 7 6 4 4 4 5 6
0 0 0 0 0 1 1 0 0 1 4 9 15 18 16 13 11 9 9 10 14 20 23 20 16 13 12 10 8 6 6 6 6 7 7 7 7 8 8 6 5 6 6 4 3 4 5 6 6
0 0 0 0 0 1 2 1 1 1 4 8 15 19 17 12 10 9 7 7 10 16 19 19 16 15 16 14 10 6 6 7 8 8 8 8 9 9 10 8 6 5 5 4 3 5 6 6 6
0 0 0 0 1 2 3 2 2 3 4 7 13 18 17 12 9 8 6 4 7 12 17 19 18 17 17 15 12 9 8 7 8 7 7 8 8 8 8 7 6 4 3 3 5 6 6 6 6
0 0 0 0 1 2 3 3 2 3 5 7 10 15 16 13 9 7 6 4 6 10 16 20 21 20 19 16 15 14 10 7 7 7 5 6 6 7 6 5 4 3 2 3 6 7 7 6 6
0 0 0 0 0 1 2 2 3 4 5 7 9 11 14 13 10 9 8 7 7 10 16 21 23 24 23 20 19 17 13 8 7 7 6 4 5 6 5 4 4 3 3 5 8 8 7 6 6
0 0 0 0 0 0 1 2 3 4 5 7 9 11 13 13 10 10 11 10 9 12 17 21 25 26 25 24 22 20 15 10 8 8 7 5 4 5 6 6 5 5 5 8 9 8 6 6 6

GEFSSGP_con_probscp_228.txt.gz
Probability
6 4 2 1 0 0 0 0 0 0 0 0 0 0 0 0 0 0 0 0 0 0 0 0 0 0 0 1 3 3 3 3 3 3 3 3 3 4 4 5 5 5 5 5 7 8 7 6 6
4 3 1 0 0 0 0 0 0 0 0 0 0 0 0 0 0 0 0 0 0 0 0 0 0 0 1 2 3 3 3 3 3 3 3 3 3 4 4 4 4 5 6 5 7 8 7 6 6
3 2 1 0 0 0 0 0 0 0 0 0 0 0 0 0 0 0 0 0 0 0 0 0 0 0 1 3 3 3 3 3 3 3 3 3 3 3 4 3 4 5 6 5 6 7 7 6 5
2 1 0 0 0 0 0 0 0 0 0 0 0 0 0 0 0 0 0 0 0 0 0 0 0 1 2 4 4 4 3 3 3 3 3 3 3 3 3 3 3 4 5 4 5 7 6 5 5
1 0 0 0 0 0 0 0 0 0 0 0 0 0 0 0 1 1 1 0 0 0 0 0 0 1 2 4 4 4 3 3 3 3 3 3 3 3 3 3 3 3 4 4 5 5 4 4 4
0 0 0 0 0 0 0 0 0 0 0 0 0 0 0 1 2 2 1 0 0 0 0 0 0 0 1 2 3 4 3 3 3 3 3 3 3 3 3 3 3 3 3 3 4 3 3 3 3
0 0 0 0 0 0 0 0 0 0 0 0 1 1 1 1 2 2 1 0 0 0 0 0 0 0 1 2 3 3 3 3 3 3 3 3 3 3 3 3 3 3 2 3 3 3 3 3 3
0 0 0 0 0 0 0 0 0 0 0 0 1 2 2 2 2 2 1 1 1 0 0 0 0 0 1 2 3 3 3 3 3 3 3 3 3 3 3 3 3 3 3 3 3 3 3 3 3
0 0 0 0 0 0 0 0 0 0 0 1 1 2 3 3 3 3 2 2 2 1 0 0 0 0 0 1 2 3 3 3 3 3 3 3 2 2 1 2 3 3 3 3 3 4 4 3 3
0 0 0 0 0 1 1 1 0 1 1 2 2 3 3 4 4 4 3 3 3 2 1 0 0 0 0 0 1 1 2 2 2 2 2 1 1 1 1 2 3 3 3 3 4 4 4 2 1
0 0 0 0 0 1 2 1 1 2 2 2 3 3 3 3 3 3 4 3 3 3 2 1 1 0 0 0 0 0 1 1 1 1 1 0 0 0 0 1 2 2 2 2 3 3 2 1 0
0 0 0 0 0 1 1 0 1 2 2 3 4 4 2 1 2 3 4 4 4 3 3 2 2 1 0 0 0 0 0 0 0 0 0 0 0 0 0 0 1 1 1 1 1 1 0 0 1
0 0 0 0 0 0 0 0 0 1 3 6 8 8 4 1 2 3 3 3 4 4 3 2 1 1 0 0 0 0 0 0 0 0 0 0 0 0 0 0 0 0 0 0 0 0 0 0 1
0 0 0 0 0 0 0 0 1 2 6 10 12 12 7 3 3 3 2 2 3 3 2 1 0 0 0 0 0 0 0 0 0 0 0 0 0 0 0 0 0 0 0 0 0 0 0 0 1
0 0 0 0 0 0 0 1 2 5 9 12 13 12 8 4 3 2 2 2 3 2 2 1 1 0 0 0 0 0 0 0 0 0 0 0 0 0 0 0 0 0 0 0 0 0 0 0 0
0 0 0 0 0 0 1 2 3 6 9 11 13 11 7 4 2 1 1 1 2 2 3 4 3 1 0 0 0 0 0 0 0 0 0 0 0 0 0 0 0 0 0 0 0 0 1 2 1
0 0 0 0 0 0 1 2 3 5 8 10 12 10 6 3 3 1 1 1 1 3 5 6 4 1 0 1 0 0 0 0 0 0 0 0 0 0 0 0 0 0 0 0 0 0 1 2 2
0 0 0 0 0 0 1 2 4 5 7 9 10 9 5 3 2 2 2 2 2 4 6 5 2 0 0 0 0 0 0 0 0 0 0 0 0 0 0 0 0 0 0 0 0 0 1 1 2
0 0 0 0 0 1 2 3 4 5 7 9 10 8 4 1 1 2 3 4 5 6 5 3 1 0 0 0 0 0 0 0 0 0 0 0 0 0 0 0 0 0 0 0 0 0 0 0 1
0 0 0 0 0 1 2 3 3 3 4 7 9 7 4 1 0 2 3 6 7 7 6 3 1 0 0 0 0 0 0 0 0 0 0 0 0 0 0 0 0 0 0 0 0 0 0 1 1
0 0 0 0 0 1 2 2 1 1 2 4 6 6 3 1 1 2 4 6 8 8 6 3 1 0 0 0 0 0 0 0 0 0 0 0 0 0 0 0 0 0 0 0 0 1 1 2 2
0 0 0 0 0 0 1 1 0 0 1 3 5 4 3 2 1 2 4 6 8 8 5 2 0 0 0 0 0 0 0 0 0 0 0 0 0 0 0 0 0 0 0 0 0 1 2 3 3
0 0 0 0 0 0 0 0 0 0 0 2 3 4 3 2 1 1 2 4 6 5 3 1 0 0 0 0 0 0 0 0 0 0 0 0 0 0 0 0 0 0 1 0 0 1 1 2 2
0 0 0 0 0 0 0 0 0 0 0 0 2 3 2 1 0 0 1 2 3 3 3 1 0 0 0 0 0 0 0 0 0 0 0 0 0 0 0 0 0 0 0 0 0 0 0 1 1
0 0 0 0 0 0 0 0 0 0 0 0 1 3 2 0 1 1 0 1 2 3 3 2 1 1 1 1 0 0 0 0 0 0 0 0 1 0 0 0 0 0 0 0 0 1 1 1 1
0 0 0 0 0 0 0 0 0 0 0 0 2 3 1 1 2 2 1 2 3 4 5 4 4 4 4 3 1 1 1 0 0 0 0 0 0 0 0 0 0 0 0 0 0 1 1 2 2
0 0 0 0 0 0 0 0 0 0 0 0 2 2 1 1 2 2 1 1 2 3 5 6 6 6 6 5 4 3 3 1 0 0 0 0 0 0 0 0 1 1 1 1 1 1 2 3 3
0 0 0 0 0 0 0 0 0 0 0 0 1 1 0 0 1 1 0 0 1 3 5 6 7 7 7 7 7 7 6 4 2 1 1 1 0 0 0 0 1 2 2 2 2 2 2 3 3
0 0 0 0 0 0 0 0 0 0 0 0 0 0 0 0 1 1 1 1 2 4 6 7 7 8 9 10 10 11 9 7 6 5 4 3 1 1 1 1 1 2 2 2 2 2 2 3 3
0 0 0 0 0 0 0 0 0 1 1 1 0 0 0 1 2 4 3 2 3 5 7 9 9 9 10 11 13 14 12 9 8 7 6 4 3 2 2 2 2 2 2 2 2 2 2 3 3

GEFSSGP_con_probscp_234.txt.gz
Probability
11 10 8 5 1 0 0 0 0 0 0 0 0 0 0 0 0 0 0 0 0 0 0 0 0 0 0 0 0 0 0 0 0 0 0 0 0 0 1 2 2 1 2 3 4 4 5 6 8
11 9 7 4 1 0 0 0 0 0 0 0 0 0 0 0 0 0 0 0 0 0 0 0 0 0 0 0 0 0 0 0 0 0 0 0 0 0 1 3 3 1 2 3 4 4 5 5 6
10 8 5 2 0 0 0 0 0 0 0 0 0 0 0 0 0 0 0 0 0 0 0 0 0 0 0 0 0 0 0 0 0 0 0 0 0 0 1 2 2 1 1 3 3 3 4 3 2
11 7 2 0 0 0 0 0 0 0 0 0 0 0 0 0 0 0 0 0 0 0 0 0 0 0 0 0 0 0 0 0 0 0 0 0 0 0 1 1 1 0 1 2 2 3 3 2 1
9 4 1 0 0 0 0 0 0 0 0 0 0 0 0 0 0 0 0 0 0 0 0 0 0 0 0 0 0 0 1 2 1 0 0 0 1 1 1 1 0 0 1 2 2 2 3 2 1
4 2 0 0 0 0 0 0 0 0 0 0 0 0 0 0 0 0 0 0 0 0 0 0 0 0 0 0 0 1 2 3 2 1 1 1 2 3 2 1 0 1 1 2 2 3 3 1 0
1 0 0 0 0 0 0 0 0 0 0 0 0 0 0 0 0 0 0 0 0 0 0 0 0 0 0 0 1 2 3 3 3 2 2 3 3 3 2 1 1 2 3 3 3 3 3 1 1
0 0 0 0 0 0 0 0 0 0 0 0 0 0 0 0 0 0 0 0 0 0 0 0 0 0 0 0 1 2 3 3 3 3 3 4 3 3 2 1 1 3 4 4 3 3 3 3 2
0 0 0 0 0 0 0 0 0 1 1 0 0 0 0 0 0 1 1 1 1 0 0 0 0 0 0 0 0 1 2 2 3 4 4 4 4 3 2 1 1 3 4 3 3 3 3 3 3
0 0 0 0 0 0 0 0 0 1 2 1 0 0 0 0 1 2 2 2 2 1 1 0 0 0 0 0 0 0 1 1 2 2 3 3 3 3 3 2 2 3 3 3 3 3 3 3 3
0 0 0 0 0 0 0 0 0 1 2 1 1 0 0 0 1 3 3 3 3 3 2 1 0 0 0 0 0 0 1 2 1 1 2 2 3 3 3 3 3 3 3 3 3 3 3 3 3
0 0 0 0 0 0 0 0 0 1 3 3 2 1 1 1 2 3 3 3 3 3 2 1 0 0 0 0 0 1 2 3 3 2 2 3 3 3 3 3 2 2 2 2 3 3 3 3 3
0 0 0 0 0 0 0 0 0 2 4 4 3 3 3 3 3 3 3 3 2 2 1 0 0 1 2 2 1 1 2 3 2 2 3 3 3 3 3 3 2 2 3 3 3 3 3 3 3
0 0 0 0 0 0 0 0 2 4 6 5 4 4 4 3 3 3 2 1 1 1 0 1 1 3 4 3 2 2 2 1 1 1 2 3 3 3 3 3 3 3 3 3 2 2 2 2 2
0 0 0 0 0 0 0 1 3 5 6 6 5 4 3 3 2 1 1 0 0 0 1 2 3 4 4 4 3 2 1 0 1 2 2 2 2 2 3 3 3 3 2 1 1 1 1 1 1
0 0 0 0 0 0 1 2 4 4 6 7 6 4 3 2 1 0 0 0 0 1 3 4 3 3 3 3 3 3 1 1 1 2 2 1 1 1 1 2 2 1 1 0 0 0 0 0 1
0 0 0 0 0 0 1 3 4 4 4 6 6 4 1 1 0 0 0 0 1 3 5 5 4 2 1 2 3 3 3 2 1 1 1 0 0 0 0 1 1 0 0 0 0 0 0 0 1
0 0 0 0 0 0 1 3 4 3 3 5 6 4 2 1 0 0 0 1 2 5 6 6 5 3 1 1 2 3 3 2 2 1 1 0 0 0 0 0 0 0 0 0 0 0 0 0 1
0 0 0 0 0 1 2 3 3 3 3 4 6 5 3 2 1 0 0 1 3 4 6 6 6 3 1 1 2 3 2 1 2 2 1 0 0 0 0 0 0 0 0 0 0 0 0 0 0
0 0 0 0 0 1 2 3 3 3 3 3 4 5 4 3 2 1 0 1 3 5 6 6 6 4 3 2 3 3 2 1 1 1 0 0 0 0 0 0 0 0 0 0 0 0 0 0 0
0 0 0 0 0 1 2 3 3 3 3 2 3 4 4 3 2 1 0 2 4 5 5 6 7 5 4 3 3 2 2 1 0 0 0 0 0 0 0 1 1 1 1 1 1 1 1 1 0
0 0 0 0 0 0 1 1 2 3 2 2 4 6 5 4 3 1 0 1 3 4 3 5 8 8 5 3 2 1 1 1 0 0 0 0 0 0 1 3 4 3 3 3 3 3 3 3 2
0 0 0 0 0 0 0 0 1 2 2 2 4 7 7 6 5 2 0 0 1 1 1 4 8 9 7 4 2 1 1 0 0 0 0 0 0 0 2 5 6 5 5 5 5 6 5 4 4
0 0 0 0 0 0 0 0 1 2 3 3 4 6 7 7 7 4 1 1 1 1 1 3 6 8 9 7 5 3 2 0 0 0 0 0 0 0 1 3 5 5 5 6 8 8 6 4 4
0 0 0 0 0 0 0 1 2 3 3 3 3 4 5 7 7 5 3 2 2 3 2 3 5 8 10 10 8 6 4 1 0 0 0 0 0 0 1 2 3 3 4 6 8 9 5 3 3
0 0 0 0 0 0 0 1 2 2 3 3 3 4 5 7 8 5 3 2 3 4 3 2 3 6 8 9 10 9 6 2 1 1 1 0 0 1 2 3 3 3 4 6 8 8 5 3 2
0 0 0 0 0 0 0 2 2 2 3 4 4 6 8 10 9 5 2 1 2 2 2 2 3 4 5 7 9 9 6 4 4 4 3 2 2 3 4 5 6 5 6 7 9 8 6 4 4
0 0 0 0 0 0 0 1 3 3 3 5 7 8 10 13 11 5 2 1 1 1 2 3 4 4 4 5 7 7 6 6 7 8 9 8 7 8 9 9 9 8 8 9 10 9 8 6 6
0 0 0 0 0 0 0 1 2 3 3 7 11 11 11 13 11 7 4 3 3 3 4 5 7 8 8 8 9 9 9 11 13 14 14 13 14 14 14 13 11 10 9 9 10 10 9 8 7
0 0 0 0 0 0 0 0 1 2 2 7 12 13 12 13 11 8 6 5 6 7 7 8 10 12 13 13 13 12 14 16 17 17 17 15 16 17 16 14 12 10 9 9 10 10 9 9 9

GEFSSGP_con_probscp_240.txt.gz
Probability
7 13 27 33 21 5 0 0 0 0 0 0 0 0 0 0 0 0 0 0 0 0 0 0 0 0 0 0 0 0 0 0 0 0 0 0 1 1 1 1 2 2 1 2 3 4 4 6 6
9 18 29 28 14 3 0 0 0 0 0 0 0 0 0 0 0 0 0 0 0 0 0 0 0 0 0 0 0 0 0 0 0 0 0 0 1 2 2 2 3 2 2 2 3 4 4 4 5
15 24 29 19 6 0 0 0 0 0 0 0 0 0 0 0 0 0 0 0 0 1 1 1 0 0 0 0 0 0 0 0 0 0 0 0 0 1 1 1 2 2 1 1 2 4 4 4 4
29 31 23 9 1 0 0 0 0 0 0 0 0 0 0 0 0 0 0 0 0 1 2 1 1 0 0 0 0 0 0 0 0 0 0 0 0 0 0 0 1 1 1 0 1 3 4 4 3
37 29 14 3 0 0 0 0 0 0 0 0 0 0 0 0 0 0 0 0 0 1 2 3 2 1 0 0 0 0 0 0 0 0 0 0 0 0 0 0 0 1 1 0 1 3 4 4 3
29 18 5 0 0 0 0 0 0 0 0 0 0 0 0 0 0 0 0 0 0 1 2 3 2 1 1 1 1 0 0 0 0 0 0 0 0 0 0 0 0 1 1 0 1 2 4 4 2
16 8 1 0 0 0 0 0 0 0 0 0 0 0 0 0 0 0 0 0 0 0 1 2 1 2 2 3 2 0 0 0 0 0 0 0 0 1 1 1 1 1 1 1 1 2 3 3 2
4 2 0 0 0 0 0 0 0 0 0 0 0 0 0 0 0 0 0 0 0 0 0 0 1 2 3 3 2 1 0 0 0 0 1 1 1 2 2 2 2 2 2 2 2 3 3 3 3
0 0 0 0 0 0 0 0 0 0 0 0 0 0 0 0 0 1 1 1 1 1 0 0 1 2 3 3 4 3 2 2 1 1 2 3 3 2 2 3 3 3 3 3 3 3 3 3 3
0 0 0 0 0 0 0 0 0 0 0 0 0 0 0 0 1 2 2 2 2 1 0 0 0 1 2 4 5 4 3 3 2 2 2 3 3 2 2 2 3 3 3 3 3 3 3 3 2
0 0 0 0 0 0 0 0 0 0 0 0 1 1 0 1 2 2 3 3 3 1 0 0 0 1 2 3 4 3 2 2 2 2 2 3 3 3 2 2 2 3 3 3 3 2 2 1 1
0 0 0 0 0 0 0 0 0 0 0 1 2 2 2 2 3 2 2 3 3 1 0 1 1 1 2 2 2 1 1 1 1 1 2 2 3 3 3 2 2 2 2 2 2 2 1 1 1
0 0 0 0 0 0 0 0 0 1 1 2 3 3 3 3 3 2 1 2 3 3 2 2 2 2 1 2 2 1 1 2 2 1 1 2 3 3 2 2 2 2 1 1 2 2 2 2 2
0 0 0 0 0 0 0 1 1 2 3 3 3 3 3 3 3 2 1 2 4 5 4 3 3 2 2 3 4 3 3 3 2 1 0 1 2 2 3 3 3 2 2 2 3 3 2 2 2
0 0 0 0 0 0 1 2 3 3 3 4 4 3 3 3 3 2 1 3 5 7 7 5 3 2 2 3 4 3 2 2 1 1 0 0 1 1 3 3 2 1 2 2 2 1 1 1 1
0 0 0 0 0 0 1 3 3 3 4 5 5 4 3 2 2 1 1 3 6 8 8 6 2 1 2 3 3 3 2 1 1 1 0 0 0 1 2 2 1 0 1 1 1 0 0 0 0
0 0 0 0 0 0 2 4 3 2 3 5 6 5 4 3 1 0 1 4 9 10 9 7 3 1 3 4 3 3 3 4 2 1 0 0 0 0 1 1 0 0 0 0 0 0 0 0 0
0 0 0 0 0 0 2 4 3 1 2 5 6 6 6 5 3 2 3 6 11 13 11 10 7 4 3 3 4 5 5 5 3 1 0 1 0 0 1 0 0 0 0 0 0 0 0 0 0
0 0 0 0 0 1 2 4 3 2 2 3 5 6 7 7 6 6 6 8 13 16 16 14 13 8 4 2 4 7 7 4 3 2 2 1 1 1 2 1 0 0 0 0 0 0 0 0 1
0 0 0 0 0 1 2 3 3 3 3 2 3 5 7 8 9 11 9 9 14 19 20 18 16 12 6 2 4 8 7 4 3 5 5 4 3 3 2 1 1 0 0 1 1 0 1 1 2
0 0 0 0 0 1 2 2 3 4 3 2 3 4 6 8 12 13 12 10 12 16 18 17 16 14 9 4 3 5 6 4 4 7 8 8 7 6 3 2 2 1 1 2 3 2 3 3 3
0 0 0 0 0 0 1 2 3 4 3 2 3 4 5 7 10 12 11 10 10 11 13 15 16 15 11 6 2 3 5 4 4 7 9 10 10 8 5 4 4 4 4 4 5 6 6 5 4
0 0 0 0 0 0 0 2 4 4 3 4 4 4 5 6 8 10 11 10 9 8 10 15 16 15 13 9 4 3 3 2 3 7 10 11 10 8 7 7 8 8 7 7 8 10 10 9 7
0 0 0 0 0 0 0 2 4 3 2 5 6 4 4 6 9 12 13 13 9 8 11 16 17 15 14 12 9 6 3 2 4 8 10 9 9 9 10 12 13 12 10 10 12 14 13 12 11
0 0 0 0 0 0 1 3 4 2 1 3 5 5 5 6 9 13 19 20 15 13 16 20 20 18 16 14 12 11 7 4 4 6 7 7 8 12 15 16 16 15 14 15 16 16 15 14 13
0 0 0 0 0 0 2 5 4 3 2 4 7 8 9 10 12 16 22 25 22 19 22 26 26 23 19 16 14 13 10 5 3 4 4 5 8 13 19 20 20 20 17 18 19 18 16 15 15
0 0 0 0 0 0 2 5 6 5 5 7 11 14 16 17 19 20 22 24 23 23 26 30 32 29 24 19 16 14 11 7 6 7 8 9 11 15 21 25 25 23 21 20 21 20 19 18 17
0 0 0 0 0 0 2 5 6 7 7 9 13 18 21 23 24 24 23 24 25 27 27 30 33 33 29 24 19 16 15 13 13 14 16 17 18 20 24 28 28 25 24 23 22 22 21 19 19
0 0 0 0 0 0 2 4 6 8 9 9 13 19 23 26 28 28 26 26 28 28 28 29 32 34 32 27 22 20 21 21 20 20 22 23 24 25 28 30 29 27 27 25 23 21 20 21 21
0 0 0 1 1 1 1 4 6 8 10 10 13 20 25 29 31 30 28 29 29 27 28 30 31 31 31 28 25 24 26 26 24 23 25 25 25 28 30 30 30 29 27 26 23 20 19 21 23

GEFSSGP_con_probscp_246.txt.gz
Probability
18 11 6 4 1 0 0 0 0 0 0 0 0 0 0 0 0 0 0 0 0 0 0 0 0 0 0 0 0 0 0 0 0 1 2 4 6 8 7 5 3 4 7 10 12 12 12 11 9
11 8 5 2 0 0 0 0 0 0 0 0 0 0 0 0 0 0 0 0 0 0 0 0 1 0 0 0 0 0 0 0 1 1 3 3 5 6 6 5 4 4 5 8 9 10 10 9 8
5 5 3 1 0 0 0 0 0 0 0 0 0 0 0 0 0 0 0 0 0 0 0 2 3 1 0 0 0 0 0 0 1 2 3 3 3 4 5 5 5 4 3 4 6 8 8 7 6
2 3 3 1 0 0 0 0 0 0 0 0 0 0 0 0 0 0 0 1 1 0 0 2 3 2 1 1 0 0 0 0 1 2 3 3 2 3 4 4 5 5 3 3 5 6 6 6 6
2 2 2 1 0 0 0 0 1 1 1 0 0 0 0 0 0 0 0 1 2 1 0 1 3 3 2 2 1 0 0 0 0 1 2 2 1 1 3 4 4 3 3 3 4 4 4 5 6
4 3 1 0 0 0 0 0 2 3 2 1 0 0 0 0 1 1 1 1 2 2 1 1 2 3 3 2 1 0 0 0 0 0 1 1 0 0 1 1 2 2 3 3 3 3 3 5 6
7 3 1 0 0 0 0 0 2 3 2 1 0 0 0 1 2 2 2 1 2 3 2 1 2 2 2 2 1 1 0 0 0 0 1 1 1 1 1 2 3 4 4 3 3 4 4 5 5
4 2 0 0 0 0 0 0 0 1 1 0 1 1 1 1 3 3 2 2 3 3 2 2 2 1 1 1 1 1 0 0 0 1 2 2 2 3 3 4 6 5 4 3 4 5 6 5 6
1 0 0 0 0 0 0 0 1 1 1 1 2 3 4 3 3 2 1 1 2 2 1 1 1 0 0 0 1 1 0 0 0 1 2 3 2 3 3 5 7 6 4 3 4 5 5 5 5
0 0 0 0 0 0 0 1 2 2 2 3 3 5 6 4 2 1 1 0 1 1 1 0 0 0 0 0 0 0 0 1 1 1 2 2 2 1 2 3 5 5 4 4 3 3 3 3 3
0 0 0 0 0 0 1 2 3 3 3 3 4 5 5 3 1 1 1 1 1 2 1 0 0 0 0 0 0 0 1 2 2 2 2 2 1 0 1 1 2 3 3 3 2 2 2 2 2
0 0 0 0 0 0 1 2 3 3 3 4 5 4 2 1 1 1 1 1 2 2 1 0 0 0 0 0 0 0 1 2 3 3 2 2 1 0 0 0 0 1 1 1 1 1 0 1 1
0 0 0 0 0 0 1 3 3 3 3 4 4 3 1 1 3 3 2 3 2 1 0 0 0 0 0 0 0 0 1 2 3 3 1 1 0 0 0 0 0 0 0 0 0 0 0 0 0
0 0 0 0 0 0 2 3 3 3 3 3 3 2 1 2 5 7 6 5 3 1 1 1 1 0 0 0 0 0 0 1 2 2 1 0 0 0 0 0 0 0 0 0 0 0 0 0 0
1 1 0 0 0 0 1 3 3 3 3 3 3 3 3 3 6 8 8 6 4 3 3 2 1 0 0 0 0 0 0 0 1 1 0 0 0 0 0 0 0 0 0 0 0 0 0 0 0
2 1 0 0 0 0 1 2 3 3 4 4 5 5 4 4 5 7 8 8 6 6 5 3 1 0 0 1 0 0 0 0 0 0 0 0 0 0 0 0 0 0 0 0 0 0 0 0 0
1 1 0 0 0 1 1 3 4 4 5 6 6 6 5 4 5 8 9 9 9 7 5 3 1 0 0 0 0 0 0 0 0 0 0 0 0 0 0 0 0 0 0 0 0 0 0 0 0
0 0 0 0 1 2 2 3 4 6 8 9 8 6 6 6 8 10 11 12 10 7 5 4 3 2 0 0 0 0 0 0 0 0 0 0 0 0 0 0 0 0 0 0 0 0 0 0 0
0 0 0 1 2 2 1 1 2 4 8 9 7 4 5 7 10 12 15 14 11 8 7 7 6 4 2 0 0 0 0 0 0 0 0 0 0 0 0 0 0 0 0 0 0 0 0 0 0
0 0 0 1 1 1 1 1 0 2 4 6 4 3 4 7 11 15 17 16 13 10 10 9 8 6 3 1 0 0 0 0 0 0 0 0 0 0 0 0 0 0 0 0 0 0 0 0 0
0 0 0 0 0 1 2 2 1 1 3 3 3 3 5 7 10 14 17 17 15 12 10 10 9 7 4 2 1 0 0 0 0 0 0 0 0 0 0 0 0 0 0 0 0 0 0 0 0
0 0 0 0 0 1 2 2 1 2 3 3 4 4 5 7 9 12 15 15 13 10 8 8 8 7 6 5 3 0 0 0 0 0 0 0 0 0 0 0 0 0 0 0 0 0 0 0 0
1 0 0 0 0 0 1 1 1 1 2 2 3 3 4 5 7 9 12 12 10 8 7 6 6 6 7 7 4 1 0 0 0 0 0 0 0 0 1 2 2 1 1 1 1 0 0 0 0
2 1 0 0 0 0 0 0 0 0 0 1 2 1 2 3 4 6 9 10 9 9 9 8 7 6 7 6 4 1 0 0 0 0 0 0 0 0 2 3 4 4 3 2 2 1 1 1 1
2 1 0 0 0 0 0 0 0 0 0 0 0 1 3 3 3 4 6 9 12 14 13 10 7 7 6 6 4 1 0 0 0 0 0 0 0 0 2 5 6 6 4 3 3 4 5 5 5
1 0 0 0 0 0 0 0 0 1 1 1 1 2 4 6 7 6 6 9 15 18 16 12 10 8 7 6 5 3 1 0 0 0 0 0 0 1 4 7 8 7 5 5 6 7 7 7 7
0 0 0 0 0 0 0 0 1 2 3 4 4 4 6 10 12 10 8 9 14 18 18 16 13 11 9 7 6 5 2 1 1 1 1 0 0 1 5 9 9 8 6 7 8 7 6 7 8
0 0 0 0 0 0 0 0 1 2 5 6 6 6 8 12 14 12 9 10 13 17 19 18 16 14 12 10 10 9 6 4 3 3 2 1 1 2 5 8 9 8 7 8 9 7 6 7 8
0 0 0 0 0 0 0 0 0 2 4 6 7 8 9 13 15 12 10 12 15 19 21 21 18 16 15 14 14 14 12 10 7 5 3 3 3 4 5 7 8 8 7 7 8 8 7 7 8
0 0 0 0 0 0 0 0 1 2 4 6 8 9 10 13 15 13 11 12 16 21 24 23 20 19 18 16 16 16 15 14 11 7 4 4 5 6 6 7 7 7 7 7 7 8 7 7 7

GEFSSGP_con_probscp_252.txt.gz
Probability
7 5 2 1 1 0 0 0 0 0 0 0 0 0 0 0 0 0 0 0 0 0 0 0 0 0 0 0 0 0 0 0 0 0 0 0 1 3 5 5 5 4 7 9 9 8 9 12 13
5 3 1 0 0 0 0 0 0 0 0 0 0 0 0 0 0 0 0 0 1 1 0 0 0 0 0 0 0 0 0 0 0 0 0 0 1 3 6 6 6 6 8 10 9 7 9 11 12
3 1 0 0 0 0 0 0 0 0 0 0 0 0 0 0 0 0 0 1 2 2 1 1 1 1 0 0 0 0 0 0 0 0 1 2 2 4 7 7 7 7 8 10 9 7 7 9 10
2 1 0 0 0 0 0 0 0 0 0 0 0 0 0 0 0 0 1 2 3 3 2 2 3 3 1 0 0 0 0 0 0 1 2 3 3 5 7 7 6 6 6 6 6 5 5 6 7
1 0 0 0 0 0 0 0 0 0 0 0 0 0 0 0 0 1 2 3 2 3 3 4 6 6 3 1 0 0 0 0 0 1 2 3 3 4 5 4 4 4 3 3 3 4 3 4 4
0 0 0 0 0 0 0 0 0 0 0 0 0 0 1 1 1 1 3 3 3 3 4 5 7 7 5 2 1 0 0 0 0 0 1 1 2 2 2 2 1 1 1 1 2 3 3 2 2
0 0 0 0 0 0 0 0 0 0 0 0 0 1 2 2 2 2 2 2 3 3 4 5 5 5 4 2 1 1 0 0 0 0 0 1 1 1 2 2 1 1 1 1 2 3 3 2 3
0 0 0 0 0 0 0 0 0 1 1 1 1 1 3 3 1 1 1 1 1 2 3 3 3 2 1 1 2 2 1 0 0 0 0 0 0 1 2 3 4 4 3 3 3 4 5 5 5
0 0 0 0 0 0 0 0 1 2 2 2 2 2 3 2 1 0 0 0 0 1 1 1 1 0 0 1 2 2 1 0 0 0 0 0 0 1 2 4 5 6 5 3 3 4 5 5 5
0 0 0 0 0 0 0 1 2 3 3 3 2 2 3 3 1 0 0 0 0 0 0 0 0 0 0 0 1 1 0 0 0 0 0 0 0 1 2 3 4 5 4 2 1 1 2 2 2
0 0 0 0 0 0 1 2 3 3 2 1 1 2 3 3 2 1 0 0 0 0 0 0 0 0 0 0 0 0 0 0 0 0 0 0 0 0 1 2 3 3 2 1 0 0 0 0 0
0 0 0 0 1 1 1 3 3 2 1 0 1 2 3 3 2 1 0 0 0 0 0 0 0 0 0 0 0 0 0 0 0 0 0 0 0 0 0 1 1 1 1 0 0 0 0 0 0
0 0 0 1 2 2 3 3 3 2 1 0 0 1 2 2 1 0 0 0 0 0 0 0 0 0 0 0 0 0 0 0 0 1 1 1 0 0 0 0 0 0 0 0 0 0 0 0 0
0 0 0 1 2 3 3 3 3 3 1 1 1 0 1 1 0 0 0 0 0 0 0 0 0 0 0 1 1 1 0 0 1 2 2 1 0 0 0 0 0 0 0 0 0 0 0 0 0
0 0 0 1 2 3 3 3 3 3 2 2 1 0 0 0 0 0 0 0 0 0 0 0 0 0 0 1 2 1 0 1 2 2 1 0 0 0 0 0 0 0 0 0 0 0 0 0 0
0 0 0 0 1 3 3 3 3 3 3 2 1 0 0 0 0 0 0 0 0 0 0 0 0 0 0 1 1 1 0 1 1 1 0 0 0 0 0 0 0 0 0 0 0 0 0 0 0
0 0 0 0 1 2 3 2 2 2 2 1 0 0 0 0 0 0 0 0 0 0 0 0 0 0 0 0 0 0 0 0 0 0 0 0 0 0 0 0 0 0 0 0 0 0 0 0 0
0 0 0 0 1 2 2 1 0 1 1 0 0 0 0 0 0 0 0 0 0 0 0 0 0 0 0 0 0 0 0 0 0 0 0 0 0 0 0 0 0 0 0 0 0 0 0 0 0
0 0 0 0 0 1 1 1 0 0 0 0 1 0 0 0 1 1 1 1 1 0 0 0 0 0 0 0 0 0 0 0 0 0 0 0 0 0 0 0 0 0 0 0 0 0 0 0 0
0 0 0 0 0 0 1 2 1 0 0 0 0 0 1 1 2 2 2 1 1 0 0 0 0 0 0 0 0 0 0 0 0 0 0 0 0 0 0 0 0 0 0 0 0 0 0 0 0
0 0 0 0 0 0 1 2 2 1 0 0 0 0 1 2 3 3 2 1 0 0 0 0 0 0 0 0 0 0 0 0 0 0 0 0 0 0 0 0 0 0 0 0 0 0 0 0 0
0 0 0 0 0 0 0 2 2 1 0 0 0 0 1 2 3 3 2 1 0 0 0 0 0 0 0 1 2 1 0 0 0 0 0 0 0 0 0 0 0 0 0 0 0 0 0 0 0
0 0 0 0 0 0 1 1 2 1 0 0 0 0 0 1 2 3 2 1 0 0 0 0 0 0 1 2 3 2 1 0 0 0 0 0 0 0 0 0 0 0 0 0 0 0 0 0 0
0 0 0 0 1 1 1 1 1 0 0 0 0 0 0 0 1 2 2 1 0 0 1 1 0 1 1 3 3 3 1 0 0 0 0 0 0 0 0 0 0 0 0 0 0 0 0 0 1
0 0 0 0 1 2 2 1 1 0 0 0 0 0 0 0 0 1 1 2 2 3 4 4 2 2 3 3 3 3 2 1 1 0 0 0 0 0 0 0 0 0 0 0 0 1 1 1 2
0 0 0 0 1 2 2 2 1 0 0 0 0 0 0 0 0 0 1 2 4 7 8 7 5 4 3 3 3 3 3 3 2 1 0 0 0 0 0 0 0 0 0 0 1 2 2 3 3
0 0 0 0 0 1 1 1 0 0 0 1 1 1 0 0 0 0 1 3 6 9 8 8 7 6 5 4 4 4 3 3 3 1 0 0 0 0 1 1 0 0 0 0 1 1 2 3 4
0 0 0 0 0 0 0 0 0 0 1 2 2 2 1 1 1 1 1 3 6 9 9 8 8 8 7 6 5 5 4 4 3 2 1 1 1 1 3 4 2 0 0 0 0 0 1 3 4
0 0 0 0 0 0 0 0 0 0 1 3 3 4 3 3 3 3 3 4 6 10 11 10 9 8 8 7 7 6 5 4 3 2 2 2 2 3 6 7 4 1 1 0 0 0 1 3 4
0 0 0 0 0 0 0 0 0 1 2 3 4 5 5 4 4 5 5 4 7 11 13 12 10 8 8 8 7 6 5 4 2 1 1 1 2 5 7 8 6 3 2 1 0 1 2 3 4

GEFSSGP_con_probscp_258.txt.gz
Probability
5 4 6 8 5 1 0 0 0 0 0 0 0 0 0 0 0 0 0 0 0 0 0 1 2 3 1 0 0 0 0 1 2 3 3 5 7 7 6 6 5 5 6 4 2 4 7 10 12
4 5 7 8 3 0 0 0 0 0 0 0 0 0 0 0 0 0 0 0 0 0 0 1 3 3 2 0 0 0 0 1 2 2 2 3 6 6 6 7 8 7 7 5 2 3 6 10 12
5 6 8 6 2 0 0 0 0 0 0 0 0 0 0 0 0 0 0 0 0 0 1 1 2 2 1 0 0 0 0 0 1 1 1 2 4 5 6 7 9 9 8 5 3 3 6 9 9
7 8 6 3 0 0 0 0 0 0 0 0 0 1 1 1 0 0 0 0 0 1 1 1 1 1 1 0 0 0 0 1 2 1 1 1 2 4 6 8 8 9 8 4 2 3 5 6 6
9 8 4 1 0 0 0 0 0 0 0 0 0 1 1 1 0 0 0 0 0 0 0 0 0 0 0 0 0 0 1 2 3 3 2 2 2 3 7 9 9 9 8 4 2 3 4 5 5
8 6 2 0 0 0 0 0 0 0 0 0 0 0 1 0 0 0 0 0 0 0 0 0 0 0 0 0 0 0 1 3 4 4 4 4 3 4 7 9 9 9 7 5 3 4 5 5 6
4 2 1 0 0 0 0 0 0 0 0 0 0 1 1 1 0 0 0 0 0 0 0 0 0 0 0 0 0 1 1 2 3 4 5 4 3 4 6 7 8 7 5 5 6 5 4 5 5
1 0 0 0 0 0 0 1 0 0 0 0 0 1 1 1 0 0 0 0 0 0 0 0 0 0 0 1 2 2 1 1 2 3 3 3 3 4 4 5 6 7 6 6 7 6 5 4 4
0 0 0 0 0 0 0 0 0 0 1 1 1 1 1 0 0 0 0 0 0 0 0 0 0 0 0 1 2 2 1 0 1 1 2 2 2 3 3 3 4 5 5 6 7 7 6 5 4
0 0 0 0 0 0 0 0 0 0 1 2 2 2 2 1 0 0 0 0 0 0 0 0 0 0 0 1 2 1 0 0 1 1 1 1 1 1 2 2 3 3 4 5 6 6 5 5 5
0 0 0 0 0 0 0 0 0 0 2 3 3 3 3 2 1 0 0 0 0 0 0 0 0 0 0 1 1 0 0 0 1 1 0 0 0 0 1 3 4 4 5 5 5 4 3 3 3
0 0 0 0 0 0 0 0 1 1 2 2 3 3 3 2 1 0 0 0 0 0 0 0 0 0 0 0 0 0 0 1 2 2 1 0 1 2 4 5 6 7 6 5 4 2 1 1 1
0 0 0 0 0 0 0 1 2 2 1 1 2 3 3 2 1 0 0 0 0 0 0 0 0 0 0 0 0 0 1 3 3 2 1 0 2 4 6 7 7 6 5 3 2 0 0 0 0
0 0 0 0 0 0 0 1 3 3 1 1 2 3 3 2 0 0 0 0 0 1 1 0 0 0 0 0 0 0 2 3 2 1 0 0 2 4 5 6 5 3 2 1 0 0 0 0 0
0 0 0 0 0 0 0 2 3 3 2 2 2 2 3 2 1 0 1 1 2 2 2 1 0 0 0 0 0 0 1 1 1 0 0 1 2 3 4 3 2 1 0 0 0 0 0 0 0
0 0 0 0 0 0 0 1 2 2 3 2 1 1 2 2 2 1 1 2 3 3 3 2 1 0 0 0 0 0 0 0 0 0 1 2 3 3 2 1 0 0 0 0 0 0 0 0 0
0 0 0 0 0 0 0 1 2 3 3 2 1 0 1 1 2 2 1 2 3 3 4 3 1 0 0 0 0 0 1 0 0 0 1 2 2 1 1 0 0 0 0 0 0 0 0 0 0
0 0 0 0 0 0 0 1 2 3 3 2 1 0 0 0 1 3 3 2 2 3 4 5 3 1 0 0 0 0 0 0 0 0 0 1 1 0 0 0 0 0 0 0 0 0 0 0 0
0 0 0 0 0 0 0 1 3 3 3 2 1 0 0 0 1 2 2 1 1 2 4 5 4 2 1 0 0 0 0 0 0 0 0 0 0 0 0 0 0 0 0 0 0 0 0 0 0
0 0 0 0 0 0 1 2 3 3 3 2 1 1 1 0 1 1 1 0 0 2 4 4 4 4 2 1 0 0 0 0 0 0 0 0 0 0 0 0 0 0 0 0 0 0 0 0 0
0 0 0 0 0 0 1 2 3 3 3 1 1 1 1 1 1 1 1 1 0 1 2 2 3 4 4 2 0 0 0 0 0 0 0 0 0 0 0 0 0 0 0 0 0 0 0 0 0
0 0 0 0 0 0 0 2 3 4 3 1 0 0 0 1 2 2 2 2 1 0 1 1 2 4 5 4 2 0 0 0 0 0 0 0 1 1 0 0 0 0 0 0 0 0 0 1 1
0 0 0 0 0 0 0 1 3 4 4 3 1 1 0 0 1 1 1 2 1 0 1 2 3 4 5 4 3 1 0 0 0 0 0 1 2 2 1 0 0 0 0 0 0 0 1 2 3
0 0 0 0 0 0 0 1 3 4 4 3 2 1 0 0 0 0 0 1 2 2 3 6 9 10 7 4 4 3 1 0 0 0 0 1 2 3 2 1 0 0 0 1 1 1 2 3 3
0 0 0 0 0 0 1 2 3 4 3 2 1 1 0 0 0 0 1 2 3 4 7 11 16 16 11 6 6 5 3 1 0 0 0 1 2 3 3 1 1 0 1 2 3 3 3 3 4
0 0 0 0 0 0 2 3 3 3 2 2 1 1 0 0 0 1 2 3 3 4 10 15 18 18 15 11 9 7 5 3 2 2 1 2 3 4 4 3 3 3 4 4 5 6 6 6 7
0 0 0 0 0 1 2 3 3 2 1 2 2 2 1 1 2 3 4 4 3 4 10 15 16 17 17 16 13 10 7 5 3 3 3 5 7 7 5 5 6 7 8 8 9 10 11 11 9
0 0 0 0 1 1 2 3 2 2 1 1 2 3 4 5 5 7 7 7 6 6 10 13 15 16 18 18 15 13 12 9 6 5 5 7 9 9 7 7 9 10 11 12 12 14 15 14 11
0 0 0 0 0 0 1 2 2 2 2 2 3 5 7 8 9 11 11 10 9 9 10 13 15 16 17 17 17 16 16 15 12 9 8 9 10 10 10 11 12 12 11 13 14 16 17 16 13
0 0 0 0 0 1 2 3 2 2 3 3 4 7 10 10 11 13 14 13 10 9 10 13 15 16 16 17 17 17 18 18 15 12 11 11 11 11 12 14 13 12 11 12 14 16 17 16 14

GEFSSGP_con_probscp_264.txt.gz
Probability
4 6 13 21 20 11 3 0 0 0 0 0 0 0 0 0 0 0 0 0 0 1 2 2 1 0 0 0 0 0 0 1 2 3 4 5 6 8 9 8 6 4 2 3 5 7 7 7 9
7 12 20 23 16 6 1 0 0 0 0 0 0 0 0 0 0 0 0 0 0 1 2 1 0 0 0 0 0 0 0 0 1 2 3 4 5 6 7 7 6 4 2 3 5 5 6 8 9
15 21 26 20 9 2 0 0 0 0 0 0 0 1 1 1 0 0 0 0 0 1 1 0 0 0 0 1 1 1 0 0 0 1 3 3 4 5 6 6 6 5 3 3 4 5 6 9 11
26 30 25 13 4 0 0 0 0 0 0 0 1 2 2 1 0 0 0 0 0 0 0 0 0 0 0 1 1 1 0 0 0 1 2 3 3 4 5 6 7 6 4 4 4 5 6 8 10
35 30 18 6 1 0 0 0 0 0 0 1 2 3 3 1 0 0 0 0 0 0 0 0 0 0 0 0 0 0 0 0 1 1 2 3 3 3 4 6 8 7 6 5 4 4 4 6 8
33 23 9 2 0 0 0 0 0 0 0 1 2 4 3 1 0 0 0 0 0 0 0 0 0 1 0 0 0 0 0 0 0 0 1 2 2 2 3 6 7 6 6 5 4 3 2 4 6
22 13 4 0 0 0 0 0 0 0 0 0 1 2 2 1 0 0 0 0 0 0 0 0 0 0 0 0 0 0 1 1 0 0 1 1 1 1 3 5 5 5 4 4 3 2 2 3 5
8 5 1 0 0 0 0 0 0 0 0 0 0 1 1 0 0 0 0 0 0 0 0 0 0 0 0 0 0 0 1 2 1 0 1 1 1 2 3 4 4 4 3 2 2 2 3 5 7
1 1 0 0 0 0 0 0 0 0 1 1 0 0 0 0 1 1 0 0 0 0 0 0 0 0 0 0 0 0 1 1 1 1 2 2 1 2 3 4 4 4 3 2 2 3 5 8 9
1 0 0 0 0 0 0 0 1 1 1 1 1 0 0 1 2 2 1 0 0 1 1 1 1 0 1 1 0 0 0 0 0 1 2 3 3 3 3 5 5 5 4 3 3 4 6 7 7
1 0 0 0 0 0 0 0 1 2 3 3 2 1 1 2 3 2 1 0 0 1 3 3 2 2 2 2 1 1 1 1 1 0 1 3 4 4 4 5 5 4 4 3 3 4 4 4 3
0 0 0 0 0 0 0 0 0 2 4 3 2 2 2 3 3 2 1 0 1 2 4 5 4 4 4 4 3 2 3 2 1 1 1 4 5 4 4 5 4 4 4 3 3 3 3 2 1
0 0 0 0 0 0 0 0 0 2 3 3 3 3 3 3 3 3 2 2 3 5 6 7 7 7 6 5 4 4 3 2 1 1 2 3 4 4 4 4 3 3 3 3 2 2 1 1 0
0 0 0 0 0 0 1 0 0 1 2 3 4 5 4 3 3 4 5 5 6 7 8 7 8 9 7 6 4 4 3 1 0 1 2 2 3 3 3 2 2 2 2 2 1 1 0 0 0
0 0 0 0 0 0 1 1 1 1 2 5 6 6 6 5 4 5 7 8 9 9 8 6 8 9 7 5 4 3 3 1 1 1 1 2 3 4 3 2 2 2 2 1 0 0 0 0 0
0 0 0 0 0 0 1 2 2 2 3 6 7 7 7 7 6 6 9 11 12 11 9 6 6 8 7 6 5 4 3 2 2 2 1 1 3 3 3 3 3 2 2 1 0 0 0 0 0
0 0 0 0 0 0 2 4 4 3 3 5 8 8 8 10 9 8 9 12 13 12 10 8 7 7 8 7 7 5 3 2 1 1 1 1 2 2 3 3 2 1 1 0 0 0 0 0 0
0 0 0 0 0 1 3 5 5 3 3 4 6 7 9 11 11 9 8 10 13 15 13 11 9 8 8 6 5 5 4 3 2 1 1 1 1 1 1 1 1 0 1 1 1 1 0 0 0
0 0 0 0 0 1 3 4 4 3 2 3 4 5 8 12 13 11 8 10 16 19 18 15 12 9 7 5 3 3 3 4 3 2 3 2 1 0 0 1 1 1 2 3 2 2 1 1 0
0 0 0 0 0 1 2 3 3 3 2 2 2 3 7 12 15 14 12 12 18 24 23 18 15 12 8 6 3 1 1 2 2 3 4 3 1 1 2 3 3 3 4 4 3 3 3 2 1
0 0 0 0 0 1 2 2 3 4 4 4 3 4 7 12 18 20 19 17 18 23 24 21 20 17 11 8 5 2 2 1 1 2 3 3 2 2 4 5 6 6 6 6 5 5 4 3 2
0 0 0 0 0 0 1 1 3 5 5 5 5 5 7 13 22 25 23 20 18 20 21 23 26 23 17 12 8 6 5 4 2 1 3 5 4 3 5 7 9 10 9 9 9 9 9 7 5
0 0 0 0 0 0 0 1 3 6 6 6 6 6 7 15 24 26 23 21 18 17 18 22 26 26 22 16 11 9 8 8 7 6 8 10 10 7 6 8 11 14 13 12 13 14 14 11 9
0 0 0 0 0 1 1 1 3 6 7 7 7 7 9 16 24 25 23 21 20 18 18 20 24 25 24 18 12 9 9 11 13 13 14 15 14 13 11 12 15 15 14 14 15 16 16 14 12
0 0 0 0 0 1 2 3 4 6 8 8 7 7 9 14 20 24 25 25 25 24 22 23 26 27 26 21 16 13 11 11 14 16 16 15 14 15 16 17 19 18 15 15 15 15 17 16 14
0 0 0 0 0 1 1 3 6 7 7 6 7 8 9 11 15 21 25 28 30 31 30 31 33 33 30 25 21 19 16 13 13 14 15 14 12 13 16 18 19 20 17 15 14 15 17 17 14
0 0 0 0 0 0 1 4 6 6 6 6 7 8 8 8 12 18 24 29 32 34 35 37 40 40 35 29 25 23 19 16 14 15 15 13 12 12 15 18 19 19 18 16 15 16 17 18 17
0 0 0 0 0 0 2 5 6 6 6 6 7 8 8 8 12 17 24 29 32 34 36 39 44 45 40 34 29 25 23 20 18 18 18 17 15 15 17 19 19 19 18 16 16 17 18 20 20
0 0 0 0 0 0 1 3 5 6 8 9 9 10 10 10 14 20 26 31 33 33 33 37 43 46 43 39 35 31 27 24 22 22 23 23 20 18 19 21 21 19 18 17 16 16 17 19 20
0 0 0 1 1 1 1 2 4 6 9 11 12 13 13 13 17 23 28 32 34 33 31 34 41 44 42 39 37 35 31 28 25 24 25 25 23 20 19 21 22 20 19 18 18 17 15 16 18